User: anonymous
Location: Caltech
(34.1382°N, 118.1253°W)
Time: 06:23:11
(UTC-07:00)
Language:

Iridium 49 - Orbit

View from above orbital plane
View from above orbital plane
View from above satellite
View from above satellite

Ground track
Ground track

The orbit data is extracted from the following two-line orbital elements,

1 25108U 97082E   14202.37697542  .00000114  00000-0  33480-4 0  8430
2 25108 086.3988 339.2564 0002195 111.7432 306.7970 14.34215639868189
Epoch (UTC): 21 July 2014 09:02:50
Eccentricity: 0.0002195
inclination: 86.3988°
perigee height: 776 km
apogee height: 779 km
right ascension of ascending node: 339.2564°
argument of perigee: 111.7432°
revolutions per day: 14.34215639
mean anomaly at epoch: 306.7970°
orbit number at epoch: 86818

The dashed part of the orbit path shows where the satellite is in the earth's shadow,  

DLR